Weather History for Perry, IA

Change the Weather History Date:

Saturday, June 15, 2013

  Actual Average Record
Temperature  
Mean Temperature 72 °F -  
Max Temperature 82 °F 80 °F 98 °F (1987)
Min Temperature 63 °F 59 °F 43 °F (1969)
Cooling Degree Days 8    
Growing Degree Days 22 (Base 50)    
Moisture  
Dew Point 64 °F    
Average Humidity 74    
Maximum Humidity 89    
Minimum Humidity 52    
Precipitation  
Precipitation 0.14 in - - ()
Sea Level Pressure  
Sea Level Pressure 29.91 in    
Wind  
Wind Speed 10 mph (South)    
Max Wind Speed 23 mph    
Max Gust Speed 23 mph    
Visibility 10 miles    
Events Rain    
Averages and records for this station are not official NWS values.
T = Trace of Precipitation, MM = Missing Value Source: NWS Daily Summary

Daily Weather History Graph

Daily Weather History Graph

Search for Another Location

Airport:

Trip Planner

Search our weather history database for the weather conditions in past years. The results will help you decide how hot, cold, wet, or windy it might be!

Date:

Astronomy

Jun. 15, 2013 Rise Set
Actual Time 5:41 AM CDT 8:53 PM CDT
Civil Twilight 5:06 AM CDT 9:27 PM CDT
Nautical Twilight 4:22 AM CDT 10:11 PM CDT
Astronomical Twilight 3:29 AM CDT 11:05 PM CDT
Moon 12:22 PM CDT (6/15) 12:24 AM CDT (6/15)
Length of Visible Light 16h 20m
Length of Day
15h 12m
Waxing Crescent, 40% of the Moon is Illuminated
Jun 15
Waxing Crescent
Jun 16
First Quarter
Jun 23
Full
Jun 29
Last Quarter
Jul 8
New

Hourly Weather History & Observations

Time (CDT) Temp. Heat Index Dew Point Humidity Pressure Visibility Wind Dir Wind Speed Gust Speed Precip Events Conditions
12:15 AM 71.6 °F - 58.3 °F 63% 29.96 in 10.0 mi SE 15.0 mph - 0.01 in Rain Rain
12:35 AM 70.9 °F - 58.6 °F 65% 29.87 in 10.0 mi ESE 23.0 mph - 0.03 in Rain Light Rain
12:55 AM 70.9 °F - 58.5 °F 65% 29.89 in 10.0 mi East 8.1 mph - 0.05 in Rain Light Rain
1:15 AM 74.7 °F - 56.1 °F 52% 29.94 in 10.0 mi Calm Calm - 0.02 in Rain Rain
1:35 AM 69.4 °F - 59.9 °F 72% 29.91 in 10.0 mi East 15.0 mph - 0.04 in Rain Rain
1:55 AM 68.2 °F - 60.4 °F 76% 29.91 in 10.0 mi ESE 11.5 mph - 0.05 in Rain Light Rain
2:15 AM 68.7 °F - 59.7 °F 73% 29.85 in 10.0 mi East 15.0 mph - N/A   Clear
2:35 AM 68.2 °F - 60.1 °F 75% 29.90 in 10.0 mi South 13.8 mph - N/A   Clear
2:55 AM 68.2 °F - 59.7 °F 74% 29.90 in 10.0 mi SSW 11.5 mph - N/A   Clear
3:15 AM 67.5 °F - 59.5 °F 76% 29.91 in 10.0 mi SSW 10.4 mph - N/A   Clear
3:35 AM 66.6 °F - 59.9 °F 79% 29.90 in 10.0 mi South 9.2 mph - N/A   Clear
3:55 AM 66.4 °F - 59.9 °F 80% 29.90 in 10.0 mi South 6.9 mph - N/A   Mostly Cloudy
4:15 AM 65.5 °F - 60.1 °F 83% 29.89 in 10.0 mi ESE 6.9 mph - N/A   Scattered Clouds
4:35 AM 64.9 °F - 60.3 °F 85% 29.89 in 10.0 mi SSE 6.9 mph - N/A   Clear
4:55 AM 64.4 °F - 60.1 °F 86% 29.88 in 10.0 mi SSE 4.6 mph - N/A   Clear
5:15 AM 63.7 °F - 59.9 °F 87% 29.89 in 10.0 mi SE 4.6 mph - N/A   Clear
5:35 AM 63.5 °F - 59.9 °F 88% 29.89 in 10.0 mi SE 5.8 mph - N/A   Clear
5:55 AM 63.5 °F - 59.9 °F 88% 29.90 in 10.0 mi ESE 5.8 mph - N/A   Clear
6:15 AM 63.5 °F - 60.1 °F 89% 29.90 in 10.0 mi ESE 5.8 mph - N/A   Clear
6:35 AM 64.0 °F - 60.4 °F 88% 29.90 in 10.0 mi East 8.1 mph - N/A   Clear
6:55 AM 65.1 °F - 61.0 °F 86% 29.90 in 10.0 mi ESE 8.1 mph - N/A   Clear
7:15 AM 66.2 °F - 61.7 °F 85% 29.91 in 10.0 mi ESE 8.1 mph - N/A   Clear
7:35 AM 68.0 °F - 62.1 °F 81% 29.92 in 10.0 mi SSE 8.1 mph - N/A   Clear
7:55 AM 69.6 °F - 62.4 °F 78% 29.92 in 10.0 mi SE 10.4 mph - N/A   Clear
8:15 AM 70.7 °F - 62.4 °F 75% 29.90 in 10.0 mi SSE 12.7 mph - N/A   Clear
8:35 AM 70.2 °F - 62.4 °F 76% 29.90 in 10.0 mi SSE 11.5 mph - N/A   Clear
8:55 AM 71.2 °F - 64.0 °F 78% 29.91 in 10.0 mi SSE 11.5 mph - N/A   Clear
9:15 AM 72.9 °F - 65.1 °F 77% 29.92 in 10.0 mi South 15.0 mph 18.4 mph N/A   Clear
9:35 AM 72.1 °F - 64.9 °F 78% 29.92 in 10.0 mi South 12.7 mph 17.3 mph N/A   Clear
9:55 AM 71.6 °F - 64.6 °F 78% 29.92 in 10.0 mi South 11.5 mph - N/A   Scattered Clouds
10:15 AM 71.4 °F - 65.1 °F 80% 29.93 in 10.0 mi SSW 12.7 mph - N/A   Scattered Clouds
10:35 AM 71.8 °F - 64.4 °F 77% 29.96 in 10.0 mi West 5.8 mph - N/A Rain Light Rain
10:55 AM 70.5 °F - 64.2 °F 80% 29.90 in 7.0 mi North 18.4 mph - 0.04 in Rain Rain
11:15 AM 70.7 °F - 63.9 °F 79% 29.91 in 10.0 mi SE 11.5 mph - N/A   Mostly Cloudy
11:35 AM 73.0 °F - 65.1 °F 76% 29.94 in 10.0 mi SSW 6.9 mph - N/A   Clear
11:55 AM 75.4 °F - 65.1 °F 70% 29.94 in 10.0 mi SW 11.5 mph 16.1 mph N/A   Clear
12:15 PM 77.9 °F - 66.2 °F 67% 29.94 in 10.0 mi SW 11.5 mph - N/A   Clear
12:35 PM 78.6 °F - 66.6 °F 66% 29.94 in 10.0 mi West 11.5 mph - N/A   Clear
12:55 PM 79.0 °F - 66.2 °F 65% 29.94 in 10.0 mi NW 15.0 mph 20.7 mph N/A   Clear
1:15 PM 77.4 °F - 66.4 °F 69% 29.93 in 10.0 mi North 10.4 mph - N/A   Clear
1:35 PM 76.6 °F - 66.6 °F 71% 29.92 in 10.0 mi North 4.6 mph - N/A   Clear
1:55 PM 76.3 °F - 66.4 °F 71% 29.92 in 10.0 mi North 3.5 mph - N/A   Scattered Clouds
2:15 PM 75.7 °F - 66.9 °F 74% 29.93 in 10.0 mi NNW 4.6 mph - N/A   Scattered Clouds
2:35 PM 75.7 °F - 66.9 °F 74% 29.93 in 10.0 mi Calm Calm - N/A   Scattered Clouds
2:55 PM 76.6 °F - 67.1 °F 72% 29.94 in 10.0 mi Calm Calm - N/A   Clear
3:15 PM 77.2 °F - 68.2 °F 74% 29.92 in 10.0 mi SSE 8.1 mph - N/A   Clear
3:35 PM 77.9 °F - 68.2 °F 72% 29.89 in 10.0 mi South 15.0 mph - N/A   Clear
3:55 PM 77.9 °F - 68.0 °F 71% 29.88 in 10.0 mi South 10.4 mph - N/A   Clear
4:15 PM 77.9 °F - 68.4 °F 72% 29.88 in 10.0 mi South 12.7 mph - N/A   Clear
4:35 PM 78.4 °F - 69.1 °F 73% 29.88 in 10.0 mi SSW 11.5 mph - N/A   Clear
4:55 PM 80.6 °F 83.6 °F 69.3 °F 68% 29.88 in 10.0 mi SSW 16.1 mph 23.0 mph N/A   Clear
5:15 PM 80.6 °F 83.5 °F 68.9 °F 67% 29.88 in 10.0 mi SW 9.2 mph - N/A   Clear
5:35 PM 82.4 °F 85.2 °F 67.8 °F 61% 29.88 in 10.0 mi West 9.2 mph - N/A   Clear
5:55 PM 82.9 °F 84.8 °F 65.5 °F 55% 29.87 in 10.0 mi West 12.7 mph - N/A   Clear
6:15 PM 82.4 °F 83.9 °F 64.4 °F 54% 29.86 in 10.0 mi West 11.5 mph - N/A   Clear
6:35 PM 82.2 °F 84.0 °F 65.1 °F 56% 29.87 in 10.0 mi West 10.4 mph - N/A   Clear
6:55 PM 80.8 °F 82.8 °F 65.7 °F 60% 29.87 in 10.0 mi West 8.1 mph - N/A   Clear
7:15 PM 80.4 °F 82.6 °F 66.4 °F 62% 29.88 in 10.0 mi WSW 5.8 mph - N/A   Clear
7:35 PM 80.6 °F 82.9 °F 66.9 °F 63% 29.88 in 10.0 mi SW 4.6 mph - N/A   Clear
7:55 PM 80.6 °F 82.9 °F 66.9 °F 63% 29.89 in 10.0 mi SW 4.6 mph - N/A   Clear
8:15 PM 79.3 °F - 67.5 °F 67% 29.90 in 10.0 mi SW 5.8 mph - N/A   Clear
8:35 PM 77.2 °F - 67.6 °F 72% 29.91 in 10.0 mi SW 4.6 mph - N/A   Clear
8:55 PM 75.6 °F - 66.6 °F 74% 29.92 in 10.0 mi SSW 6.9 mph - N/A   Scattered Clouds
9:15 PM 75.2 °F - 64.8 °F 70% 29.92 in 10.0 mi South 13.8 mph - N/A   Overcast
9:35 PM 72.5 °F - 63.3 °F 73% 29.92 in 10.0 mi SSW 17.3 mph 23.0 mph N/A   Overcast
9:55 PM 70.9 °F - 63.5 °F 77% 29.94 in 10.0 mi South 11.5 mph - N/A   Scattered Clouds
10:15 PM 70.2 °F - 63.7 °F 80% 29.94 in 10.0 mi South 9.2 mph - N/A   Scattered Clouds
10:35 PM 69.6 °F - 63.5 °F 81% 29.94 in 10.0 mi South 8.1 mph - N/A   Scattered Clouds
10:55 PM 68.7 °F - 63.5 °F 83% 29.95 in 10.0 mi SSW 6.9 mph - N/A   Clear
11:15 PM 68.2 °F - 63.5 °F 85% 29.95 in 10.0 mi South 3.5 mph - N/A   Scattered Clouds
11:35 PM 67.3 °F - 63.5 °F 88% 29.94 in 10.0 mi South 3.5 mph - N/A   Clear
11:55 PM 67.6 °F - 63.7 °F 87% 29.95 in 10.0 mi SW 5.8 mph - N/A   Scattered Clouds